Лаздияй

Литва     54°13′52″N   23°31′04″E
темп.,
°C
ветер,
м/с
пор.,
м/с
влажн.,
%
обл.,
%
осадки,
мм/ч
давл.,
гПа
погр.,
м
21 апреля, ср
ср2100:00+7зсз118081 0.0 101110
03:00+8з227596 0.0 101036
06:00+5з338519 0.0 100942
09:00+9зсз357081 0.0 1009301
12:00+13зсз454727 0.0 10081157
15:00+14зсз56415 0.0 10082014
18:00+14зсз464716 0.0 10071972
21:00+8зсз34692 0.0 100846
22 апреля, чт
чт2200:00+6зсз22745 0.0 100812
03:00+6ссз127891 0.0 100831
06:00+5з3395100 0.4 100851
09:00+5зюз4988100 0.8 1009720
12:00+7зюз7952100 0.1 10091491
15:00+8з895494 0.2 10091638
18:00+8зюз9106135 0.3 10091688
21:00+4юз5118733 0.9 1011827
23 апреля, пт
пт2300:00+2юз6128463 0.1 1011516
03:00+1юз613878 0.1 1011533
06:00+1юз6119699 0.0 1011630
09:00+2з51096100 0.3 1012695
12:00+6з8959100 0.8 10121790
15:00+5зсз81069100 2.0 10141424
18:00+4зсз71077100 1.1 10151200
21:00+2зсз61184100 1.2 1016810
24 апреля, сб
сб2400:00+1з81495100 0.1 1015892
03:00+1зсз6128969 0.4 1015679
06:00+1зсз51197100 0.3 1016484
09:00+3зсз7108081 0.4 10161027
12:00+6зсз7958100 0.4 10151812
15:00+7зсз8946100 0.7 10152239
18:00+6зсз8105011 0.3 10152239
21:00+1зсз712674 0.3 1016651
25 апреля, вс
вс2500:000з71389100 0.0 1016809
03:00+1зсз9149094 0.4 10141012
06:00+1зсз91483100 0.1 10141056
09:00+2зсз91484100 0.3 10141236
12:00+4зсз101372100 0.6 10151477
15:00+3зсз101287100 1.3 1015978
18:00+4зсз9138066 0.3 10151266
21:00+1зсз7138877 0.6 1016694